QPF
0.01 0.01 0.02 0.01 0.01 0.02 0.03 0.04 0.04 0.05 0.07 0.09 0.11 0.11 0.10 0.07 0.05 0.05 0.05 0.07 0.05 0.06 0.06 0.05 0.04 0.04 0.05 0.04 0.03 0.03 0.03 0.03 0.05 0.06 0.07 0.06 0.05 0.04 0.04 0.04 0.03 0.04 0.05 0.04
0.02 0.02 0.02 0.02 0.03 0.03 0.02 0.02 0.02 0.04 0.05 0.06 0.07 0.10 0.11 0.09 0.07 0.07 0.07 0.11 0.09 0.05 0.04 0.03 0.02 0.02 0.02 0.03 0.03 0.03 0.02 0.03 0.04 0.06 0.06 0.06 0.07 0.07 0.06 0.07 0.07 0.07 0.05 0.04
0.03 0.02 0.04 0.04 0.04 0.04 0.02 0.02 0.02 0.02 0.03 0.04 0.07 0.07 0.08 0.09 0.09 0.09 0.08 0.10 0.09 0.05 0.03 0.02 0.01 0.01 0.01 0.02 0.03 0.03 0.02 0.03 0.03 0.04 0.04 0.04 0.05 0.06 0.07 0.08 0.09 0.09 0.07 0.05
0.05 0.06 0.04 0.04 0.03 0.02 0.02 0.03 0.03 0.02 0.02 0.03 0.04 0.05 0.06 0.07 0.10 0.14 0.11 0.08 0.07 0.04 0.04 0.03 0.01 0.01 0.01 0.02 0.02 0.02 0.02 0.03 0.03 0.03 0.04 0.05 0.04 0.04 0.04 0.05 0.06 0.08 0.09 0.07
0.07 0.08 0.06 0.03 0.02 0.02 0.03 0.03 0.03 0.03 0.04 0.03 0.03 0.04 0.04 0.04 0.08 0.14 0.15 0.11 0.06 0.03 0.02 0.01 0.01 0.01 0.01 0.02 0.02 0.01 0.01 0.02 0.03 0.03 0.04 0.04 0.04 0.04 0.04 0.04 0.04 0.05 0.06 0.07
0.06 0.07 0.08 0.04 0.02 0.02 0.02 0.05 0.04 0.05 0.04 0.03 0.03 0.04 0.07 0.05 0.05 0.07 0.10 0.10 0.05 0.02 0.02 0.01 0.01 0.01 0.02 0.02 0.02 0.01 0.01 0.01 0.02 0.02 0.03 0.03 0.03 0.03 0.03 0.04 0.04 0.04 0.04 0.04
0.06 0.08 0.08 0.05 0.03 0.02 0.03 0.05 0.05 0.04 0.03 0.02 0.03 0.04 0.07 0.07 0.05 0.05 0.04 0.05 0.04 0.02 0.02 0.01 0.01 0.01 0.01 0.02 0.02 0.02 0.02 0.02 0.02 0.02 0.03 0.03 0.05 0.04 0.04 0.04 0.04 0.03 0.03 0.03
0.06 0.08 0.07 0.03 0.03 0.03 0.02 0.03 0.05 0.06 0.07 0.04 0.03 0.04 0.06 0.07 0.05 0.04 0.04 0.04 0.03 0.02 0.01 0.01 0.01 0.01 0.01 0.02 0.02 0.02 0.03 0.04 0.04 0.03 0.03 0.03 0.05 0.03 0.04 0.04 0.04 0.03 0.02 0.02
0.08 0.08 0.06 0.03 0.03 0.03 0.02 0.03 0.03 0.04 0.06 0.05 0.05 0.06 0.06 0.06 0.06 0.06 0.05 0.04 0.03 0.02 0.01 0.01 0.01 0.02 0.02 0.01 0.01 0.02 0.04 0.08 0.09 0.08 0.05 0.06 0.06 0.05 0.04 0.04 0.04 0.03 0.03 0.03
0.10 0.12 0.12 0.12 0.08 0.04 0.04 0.05 0.05 0.04 0.04 0.05 0.06 0.05 0.05 0.06 0.07 0.07 0.06 0.05 0.05 0.03 0.02 0.01 0.01 0.02 0.01 0.01 0.02 0.02 0.02 0.05 0.10 0.12 0.11 0.09 0.07 0.06 0.05 0.05 0.04 0.03 0.04 0.03
0.13 0.15 0.14 0.17 0.14 0.09 0.08 0.06 0.06 0.05 0.06 0.06 0.05 0.05 0.05 0.06 0.07 0.07 0.06 0.05 0.04 0.04 0.04 0.02 0.02 0.02 0.01 0.01 0.02 0.02 0.02 0.03 0.04 0.06 0.11 0.13 0.11 0.10 0.10 0.08 0.07 0.04 0.03 0.02
0.12 0.12 0.11 0.13 0.16 0.13 0.12 0.08 0.04 0.03 0.04 0.05 0.07 0.07 0.05 0.05 0.05 0.06 0.05 0.04 0.04 0.04 0.04 0.03 0.02 0.02 0.02 0.02 0.02 0.02 0.02 0.01 0.01 0.02 0.04 0.07 0.09 0.08 0.08 0.07 0.06 0.05 0.04 0.04
0.07 0.07 0.07 0.07 0.07 0.07 0.09 0.08 0.05 0.04 0.03 0.04 0.05 0.08 0.10 0.07 0.07 0.06 0.04 0.04 0.04 0.04 0.04 0.04 0.04 0.03 0.02 0.02 0.02 0.02 0.02 0.02 0.02 0.03 0.03 0.03 0.03 0.03 0.03 0.02 0.02 0.02 0.03 0.03
0.03 0.04 0.04 0.04 0.04 0.04 0.07 0.07 0.05 0.03 0.03 0.04 0.06 0.09 0.19 0.15 0.10 0.07 0.06 0.05 0.05 0.05 0.04 0.04 0.04 0.03 0.02 0.02 0.02 0.01 0.02 0.02 0.02 0.02 0.01 0.01 0.01 0.01 0.01 0.01 0.01 0.01 0.01 0.01
0.04 0.03 0.02 0.03 0.03 0.03 0.04 0.06 0.04 0.03 0.03 0.03 0.05 0.07 0.13 0.19 0.15 0.09 0.08 0.07 0.05 0.05 0.04 0.04 0.04 0.03 0.03 0.03 0.02 0.01 0.01 0.01 0.01 0.01 0.01 0.01 0.01 0.01 0.02 0.01 0.02 0.01 0.02 0.01
0.05 0.03 0.02 0.03 0.03 0.03 0.03 0.04 0.02 0.02 0.03 0.03 0.03 0.06 0.09 0.14 0.15 0.09 0.07 0.08 0.06 0.05 0.05 0.04 0.03 0.03 0.03 0.03 0.02 0.01 0.01 0.01 0.01 0.02 0.03 0.02 0.01 0.02 0.02 0.02 0.02 0.02 0.02 0.02
0.05 0.04 0.03 0.03 0.03 0.02 0.03 0.02 0.02 0.02 0.04 0.03 0.02 0.03 0.05 0.10 0.13 0.10 0.08 0.08 0.08 0.06 0.05 0.03 0.03 0.02 0.02 0.01 0.01 0.01 0.00 0.00 0.01 0.01 0.03 0.03 0.03 0.02 0.03 0.03 0.03 0.03 0.02 0.02
0.05 0.06 0.06 0.06 0.05 0.03 0.02 0.01 0.01 0.03 0.05 0.03 0.02 0.01 0.03 0.06 0.07 0.08 0.08 0.09 0.09 0.10 0.08 0.05 0.04 0.03 0.02 0.01 0.01 0.01 0.00 0.00 0.01 0.01 0.02 0.03 0.04 0.04 0.04 0.05 0.05 0.03 0.03 0.03
0.03 0.03 0.03 0.03 0.03 0.02 0.02 0.01 0.02 0.03 0.05 0.03 0.02 0.02 0.02 0.04 0.04 0.03 0.04 0.07 0.10 0.11 0.10 0.07 0.06 0.04 0.03 0.01 0.01 0.01 0.01 0.00 0.00 0.01 0.01 0.02 0.03 0.03 0.04 0.04 0.04 0.04 0.04 0.04
0.02 0.02 0.02 0.02 0.01 0.01 0.01 0.01 0.02 0.03 0.05 0.04 0.03 0.02 0.02 0.03 0.03 0.03 0.02 0.03 0.06 0.08 0.09 0.09 0.08 0.05 0.03 0.02 0.01 0.01 0.01 0.00 0.00 0.01 0.01 0.03 0.03 0.03 0.03 0.03 0.04 0.05 0.05 0.05
0.02 0.02 0.02 0.01 0.01 0.01 0.01 0.03 0.04 0.03 0.03 0.03 0.03 0.03 0.02 0.02 0.03 0.02 0.01 0.01 0.02 0.03 0.06 0.08 0.09 0.07 0.05 0.04 0.02 0.02 0.02 0.01 0.01 0.01 0.02 0.03 0.03 0.03 0.03 0.03 0.04 0.06 0.07 0.07
0.01 0.01 0.01 0.01 0.01 0.01 0.03 0.06 0.06 0.05 0.03 0.02 0.02 0.01 0.02 0.02 0.02 0.01 0.01 0.01 0.01 0.01 0.03 0.05 0.07 0.07 0.07 0.06 0.04 0.02 0.02 0.01 0.01 0.02 0.03 0.03 0.03 0.04 0.04 0.03 0.03 0.04 0.05 0.07
0.01 0.01 0.01 0.01 0.01 0.02 0.04 0.05 0.05 0.03 0.03 0.03 0.04 0.03 0.02 0.02 0.01 0.02 0.01 0.01 0.01 0.01 0.02 0.02 0.04 0.06 0.07 0.07 0.06 0.05 0.04 0.03 0.02 0.02 0.02 0.02 0.03 0.04 0.04 0.04 0.04 0.04 0.05 0.06
0.01 0.01 0.01 0.01 0.02 0.03 0.05 0.06 0.04 0.03 0.04 0.04 0.06 0.07 0.04 0.01 0.01 0.02 0.01 0.01 0.02 0.02 0.02 0.01 0.01 0.01 0.03 0.05 0.06 0.06 0.05 0.05 0.04 0.03 0.02 0.02 0.02 0.03 0.03 0.04 0.04 0.03 0.05 0.05
0.01 0.02 0.02 0.02 0.03 0.04 0.05 0.05 0.03 0.02 0.01 0.02 0.02 0.03 0.02 0.01 0.02 0.02 0.03 0.04 0.04 0.03 0.02 0.02 0.02 0.02 0.01 0.01 0.03 0.05 0.05 0.05 0.05 0.04 0.03 0.03 0.03 0.02 0.03 0.03 0.04 0.04 0.04 0.04
0.02 0.02 0.02 0.03 0.04 0.04 0.05 0.05 0.03 0.02 0.01 0.01 0.02 0.03 0.02 0.01 0.02 0.03 0.04 0.05 0.05 0.03 0.02 0.02 0.03 0.02 0.02 0.01 0.02 0.03 0.04 0.04 0.04 0.04 0.04 0.03 0.03 0.03 0.04 0.04 0.04 0.04 0.04 0.04
0.02 0.02 0.03 0.04 0.04 0.04 0.04 0.04 0.04 0.03 0.02 0.01 0.02 0.02 0.02 0.02 0.02 0.02 0.03 0.03 0.04 0.03 0.03 0.03 0.03 0.02 0.02 0.02 0.02 0.03 0.03 0.03 0.03 0.03 0.04 0.04 0.03 0.03 0.03 0.03 0.04 0.04 0.05 0.05
MSLP
1004.50 1004.60 1004.64 1004.56 1004.33 1003.95 1003.44 1002.83 1002.18 1001.55 1000.99 1000.55 1000.24 1000.03 999.88 999.73 999.54 999.25 998.87 998.40 997.91 997.47 997.18 997.11 997.33 997.86 998.69 999.78 1001.04 1002.36 1003.66 1004.85 1005.89 1006.74 1007.42 1007.95 1008.38 1008.74 1009.07 1009.39 1009.69 1009.97 1010.22 1010.41
1003.71 1003.73 1003.64 1003.41 1003.02 1002.49 1001.85 1001.17 1000.51 999.93 999.48 999.18 999.02 998.97 998.97 998.95 998.86 998.67 998.38 998.01 997.64 997.33 997.19 997.29 997.67 998.35 999.30 1000.46 1001.74 1003.05 1004.29 1005.40 1006.34 1007.10 1007.69 1008.14 1008.51 1008.84 1009.15 1009.45 1009.74 1010.00 1010.22 1010.38
1002.90 1002.84 1002.65 1002.30 1001.80 1001.17 1000.47 999.77 999.14 998.63 998.29 998.12 998.11 998.20 998.32 998.42 998.43 998.34 998.15 997.89 997.63 997.47 997.48 997.72 998.24 999.03 1000.06 1001.25 1002.52 1003.78 1004.94 1005.94 1006.76 1007.41 1007.91 1008.29 1008.61 1008.90 1009.19 1009.47 1009.74 1009.98 1010.17 1010.28
1002.16 1002.03 1001.76 1001.33 1000.75 1000.08 999.37 998.70 998.13 997.72 997.50 997.46 997.58 997.80 998.04 998.24 998.35 998.36 998.27 998.13 998.00 997.97 998.11 998.47 999.08 999.93 1000.98 1002.15 1003.36 1004.51 1005.55 1006.43 1007.12 1007.66 1008.06 1008.37 1008.65 1008.91 1009.18 1009.44 1009.70 1009.91 1010.06 1010.13
1001.59 1001.38 1001.04 1000.57 999.97 999.30 998.63 998.02 997.54 997.24 997.14 997.23 997.47 997.80 998.15 998.45 998.67 998.78 998.80 998.77 998.76 998.84 999.09 999.53 1000.19 1001.04 1002.05 1003.14 1004.23 1005.25 1006.14 1006.87 1007.43 1007.85 1008.17 1008.42 1008.65 1008.88 1009.13 1009.38 1009.61 1009.79 1009.90 1009.93
1001.22 1000.95 1000.56 1000.06 999.48 998.85 998.25 997.73 997.36 997.17 997.19 997.39 997.74 998.17 998.62 999.02 999.34 999.56 999.69 999.78 999.88 1000.06 1000.38 1000.86 1001.52 1002.33 1003.25 1004.21 1005.15 1006.00 1006.72 1007.29 1007.72 1008.04 1008.27 1008.47 1008.67 1008.88 1009.10 1009.33 1009.53 1009.68 1009.75 1009.72
1001.06 1000.73 1000.32 999.84 999.29 998.74 998.22 997.81 997.55 997.48 997.60 997.90 998.34 998.85 999.39 999.88 1000.30 1000.62 1000.87 1001.07 1001.28 1001.54 1001.90 1002.39 1003.01 1003.73 1004.53 1005.34 1006.10 1006.77 1007.33 1007.75 1008.06 1008.28 1008.44 1008.59 1008.76 1008.94 1009.14 1009.34 1009.51 1009.61 1009.63 1009.56
1001.08 1000.73 1000.34 999.89 999.41 998.94 998.53 998.22 998.07 998.09 998.30 998.67 999.18 999.76 1000.36 1000.93 1001.44 1001.87 1002.22 1002.53 1002.82 1003.15 1003.54 1004.02 1004.58 1005.20 1005.86 1006.51 1007.10 1007.60 1008.00 1008.29 1008.49 1008.63 1008.74 1008.84 1008.97 1009.13 1009.29 1009.45 1009.57 1009.63 1009.60 1009.48
1001.24 1000.92 1000.57 1000.19 999.80 999.43 999.12 998.92 998.85 998.95 999.21 999.63 1000.17 1000.79 1001.44 1002.07 1002.65 1003.16 1003.61 1004.01 1004.38 1004.77 1005.18 1005.63 1006.13 1006.66 1007.18 1007.68 1008.12 1008.47 1008.74 1008.92 1009.04 1009.12 1009.18 1009.25 1009.34 1009.46 1009.58 1009.68 1009.74 1009.74 1009.65 1009.48
1001.53 1001.27 1001.00 1000.71 1000.42 1000.15 999.94 999.82 999.82 999.97 1000.26 1000.70 1001.25 1001.88 1002.54 1003.21 1003.84 1004.42 1004.94 1005.42 1005.86 1006.28 1006.71 1007.14 1007.58 1008.02 1008.44 1008.81 1009.13 1009.38 1009.55 1009.65 1009.71 1009.74 1009.76 1009.80 1009.85 1009.91 1009.97 1010.01 1010.00 1009.93 1009.79 1009.57
1001.91 1001.75 1001.57 1001.39 1001.21 1001.04 1000.92 1000.87 1000.92 1001.09 1001.38 1001.81 1002.34 1002.96 1003.62 1004.29 1004.95 1005.57 1006.15 1006.68 1007.16 1007.62 1008.05 1008.47 1008.86 1009.24 1009.57 1009.86 1010.09 1010.26 1010.37 1010.43 1010.44 1010.45 1010.44 1010.43 1010.44 1010.44 1010.43 1010.40 1010.31 1010.17 1009.97 1009.71
1002.37 1002.32 1002.25 1002.18 1002.10 1002.02 1001.97 1001.97 1002.05 1002.23 1002.51 1002.91 1003.41 1003.99 1004.63 1005.29 1005.95 1006.59 1007.19 1007.75 1008.27 1008.74 1009.17 1009.57 1009.93 1010.26 1010.54 1010.77 1010.94 1011.07 1011.14 1011.17 1011.17 1011.15 1011.12 1011.08 1011.03 1010.98 1010.90 1010.78 1010.63 1010.42 1010.17 1009.88
1002.86 1002.92 1002.96 1002.99 1002.99 1002.99 1003.01 1003.05 1003.15 1003.33 1003.60 1003.97 1004.43 1004.97 1005.57 1006.21 1006.86 1007.50 1008.10 1008.67 1009.19 1009.66 1010.08 1010.46 1010.79 1011.07 1011.31 1011.50 1011.64 1011.74 1011.80 1011.82 1011.81 1011.77 1011.72 1011.65 1011.56 1011.44 1011.30 1011.12 1010.91 1010.65 1010.36 1010.05
1003.34 1003.50 1003.63 1003.74 1003.82 1003.88 1003.95 1004.03 1004.16 1004.34 1004.61 1004.95 1005.39 1005.90 1006.47 1007.08 1007.71 1008.33 1008.92 1009.47 1009.98 1010.43 1010.82 1011.16 1011.45 1011.70 1011.90 1012.06 1012.18 1012.26 1012.30 1012.32 1012.30 1012.26 1012.19 1012.09 1011.96 1011.81 1011.62 1011.39 1011.14 1010.85 1010.55 1010.23
1003.76 1003.99 1004.19 1004.36 1004.50 1004.62 1004.73 1004.86 1005.02 1005.23 1005.51 1005.86 1006.29 1006.79 1007.34 1007.93 1008.54 1009.13 1009.69 1010.22 1010.68 1011.09 1011.44 1011.74 1011.98 1012.18 1012.34 1012.46 1012.55 1012.62 1012.65 1012.66 1012.64 1012.59 1012.51 1012.39 1012.24 1012.06 1011.84 1011.60 1011.32 1011.03 1010.73 1010.43
1004.06 1004.33 1004.58 1004.79 1004.98 1005.16 1005.33 1005.51 1005.72 1005.98 1006.30 1006.68 1007.13 1007.64 1008.20 1008.78 1009.36 1009.93 1010.46 1010.94 1011.36 1011.71 1012.00 1012.23 1012.42 1012.56 1012.67 1012.76 1012.82 1012.86 1012.88 1012.88 1012.85 1012.80 1012.71 1012.59 1012.43 1012.24 1012.02 1011.77 1011.50 1011.23 1010.94 1010.67
1004.20 1004.51 1004.79 1005.04 1005.28 1005.51 1005.74 1005.99 1006.28 1006.61 1006.99 1007.43 1007.92 1008.46 1009.04 1009.62 1010.19 1010.73 1011.22 1011.65 1012.02 1012.31 1012.53 1012.70 1012.83 1012.91 1012.97 1013.01 1013.03 1013.04 1013.05 1013.03 1013.00 1012.94 1012.85 1012.73 1012.57 1012.39 1012.18 1011.95 1011.70 1011.45 1011.20 1010.95
1004.19 1004.53 1004.85 1005.15 1005.44 1005.73 1006.04 1006.37 1006.74 1007.15 1007.61 1008.11 1008.67 1009.25 1009.84 1010.43 1010.99 1011.51 1011.96 1012.35 1012.65 1012.89 1013.05 1013.16 1013.22 1013.25 1013.26 1013.26 1013.25 1013.24 1013.21 1013.18 1013.14 1013.07 1012.98 1012.87 1012.72 1012.55 1012.36 1012.15 1011.93 1011.71 1011.48 1011.26
1004.10 1004.47 1004.83 1005.19 1005.54 1005.91 1006.29 1006.70 1007.15 1007.65 1008.18 1008.75 1009.36 1009.97 1010.58 1011.17 1011.72 1012.21 1012.63 1012.97 1013.23 1013.41 1013.53 1013.59 1013.61 1013.60 1013.58 1013.54 1013.51 1013.47 1013.43 1013.38 1013.32 1013.25 1013.16 1013.04 1012.90 1012.74 1012.56 1012.37 1012.17 1011.96 1011.75 1011.53
1004.00 1004.43 1004.86 1005.27 1005.70 1006.13 1006.59 1007.08 1007.60 1008.15 1008.74 1009.36 1009.98 1010.61 1011.22 1011.80 1012.32 1012.78 1013.16 1013.46 1013.68 1013.83 1013.92 1013.96 1013.96 1013.93 1013.89 1013.84 1013.79 1013.74 1013.69 1013.63 1013.55 1013.46 1013.36 1013.23 1013.09 1012.92 1012.75 1012.56 1012.36 1012.15 1011.94 1011.71
1004.02 1004.52 1005.02 1005.50 1005.99 1006.49 1007.01 1007.54 1008.11 1008.69 1009.30 1009.92 1010.54 1011.15 1011.73 1012.27 1012.74 1013.16 1013.50 1013.77 1013.96 1014.10 1014.17 1014.21 1014.21 1014.19 1014.16 1014.12 1014.07 1014.02 1013.95 1013.87 1013.78 1013.67 1013.54 1013.39 1013.23 1013.04 1012.85 1012.65 1012.43 1012.21 1011.97 1011.72
1004.23 1004.81 1005.37 1005.92 1006.47 1007.01 1007.56 1008.12 1008.69 1009.27 1009.85 1010.44 1011.01 1011.56 1012.08 1012.55 1012.97 1013.32 1013.62 1013.86 1014.03 1014.16 1014.25 1014.30 1014.33 1014.34 1014.33 1014.31 1014.27 1014.22 1014.15 1014.05 1013.93 1013.79 1013.63 1013.44 1013.24 1013.02 1012.80 1012.56 1012.32 1012.06 1011.80 1011.51
1004.67 1005.31 1005.93 1006.53 1007.11 1007.67 1008.22 1008.77 1009.31 1009.85 1010.37 1010.89 1011.38 1011.84 1012.26 1012.65 1012.99 1013.28 1013.53 1013.73 1013.90 1014.03 1014.14 1014.22 1014.28 1014.32 1014.35 1014.35 1014.33 1014.28 1014.20 1014.08 1013.93 1013.75 1013.54 1013.31 1013.06 1012.80 1012.53 1012.25 1011.98 1011.69 1011.40 1011.09
1005.29 1005.98 1006.63 1007.25 1007.84 1008.40 1008.93 1009.44 1009.93 1010.39 1010.83 1011.25 1011.63 1011.99 1012.31 1012.60 1012.85 1013.08 1013.27 1013.44 1013.59 1013.73 1013.85 1013.96 1014.06 1014.14 1014.19 1014.21 1014.20 1014.15 1014.05 1013.90 1013.72 1013.49 1013.23 1012.95 1012.65 1012.34 1012.04 1011.73 1011.42 1011.12 1010.81 1010.49
1006.01 1006.72 1007.38 1007.99 1008.57 1009.10 1009.59 1010.04 1010.46 1010.85 1011.20 1011.51 1011.79 1012.04 1012.26 1012.46 1012.63 1012.78 1012.93 1013.06 1013.19 1013.33 1013.46 1013.58 1013.70 1013.79 1013.86 1013.89 1013.87 1013.81 1013.68 1013.51 1013.28 1013.01 1012.70 1012.38 1012.04 1011.70 1011.37 1011.04 1010.73 1010.42 1010.12 1009.81
1006.73 1007.41 1008.05 1008.64 1009.17 1009.67 1010.11 1010.51 1010.87 1011.18 1011.45 1011.69 1011.88 1012.04 1012.18 1012.29 1012.39 1012.48 1012.58 1012.67 1012.78 1012.90 1013.02 1013.14 1013.26 1013.35 1013.41 1013.42 1013.39 1013.29 1013.13 1012.92 1012.65 1012.35 1012.01 1011.65 1011.29 1010.94 1010.60 1010.28 1009.98 1009.70 1009.42 1009.15
1007.33 1007.97 1008.56 1009.10 1009.60 1010.05 1010.45 1010.81 1011.12 1011.39 1011.61 1011.79 1011.93 1012.03 1012.11 1012.17 1012.21 1012.26 1012.31 1012.37 1012.44 1012.53 1012.62 1012.72 1012.80 1012.86 1012.89 1012.87 1012.80 1012.66 1012.47 1012.22 1011.93 1011.59 1011.24 1010.88 1010.52 1010.18 1009.86 1009.57 1009.31 1009.07 1008.85 1008.63
Thickness
5702 5711 5714 5713 5713 5715 5708 5704 5696 5700 5702 5707 5711 5711 5713 5713 5711 5711 5710 5710 5710 5709 5709 5709 5708 5707 5705 5703 5703 5702 5699 5697 5695 5694 5692 5690 5686 5683 5681 5678 5675 5671 5667 5663
5695 5708 5709 5706 5710 5711 5708 5707 5704 5703 5699 5710 5711 5709 5708 5707 5706 5704 5705 5706 5707 5706 5705 5704 5703 5702 5700 5699 5698 5697 5694 5692 5691 5690 5688 5685 5683 5679 5677 5674 5670 5667 5663 5659
5677 5693 5697 5686 5697 5700 5698 5700 5699 5691 5694 5702 5701 5702 5702 5702 5701 5701 5703 5703 5701 5702 5701 5699 5698 5697 5695 5694 5693 5692 5690 5688 5686 5685 5682 5681 5679 5675 5672 5669 5666 5663 5660 5656
5667 5674 5663 5678 5698 5700 5694 5692 5693 5692 5694 5696 5697 5699 5700 5700 5698 5697 5697 5697 5697 5696 5695 5695 5693 5692 5691 5689 5687 5686 5684 5683 5681 5680 5678 5676 5673 5670 5668 5665 5661 5659 5656 5653
5657 5657 5663 5677 5686 5687 5682 5676 5684 5685 5686 5688 5692 5691 5689 5693 5693 5692 5693 5692 5691 5691 5691 5689 5687 5686 5685 5683 5681 5680 5679 5678 5677 5675 5672 5670 5668 5665 5663 5660 5657 5655 5653 5650
5653 5650 5648 5660 5680 5689 5682 5663 5675 5678 5676 5679 5682 5672 5674 5684 5687 5687 5687 5686 5684 5683 5683 5682 5681 5680 5678 5676 5675 5674 5674 5673 5672 5671 5668 5666 5663 5662 5659 5657 5653 5651 5648 5646
5644 5642 5645 5660 5674 5680 5658 5653 5667 5670 5670 5670 5669 5668 5672 5678 5680 5680 5679 5679 5678 5677 5675 5675 5675 5673 5670 5669 5668 5669 5669 5668 5667 5665 5663 5661 5659 5657 5654 5652 5649 5646 5644 5642
5633 5629 5633 5655 5661 5654 5651 5660 5663 5664 5665 5664 5665 5668 5669 5671 5671 5671 5670 5670 5670 5669 5668 5668 5667 5665 5663 5662 5663 5664 5663 5662 5661 5659 5659 5657 5653 5651 5649 5646 5643 5640 5638 5636
5626 5626 5636 5646 5648 5651 5654 5654 5656 5658 5659 5660 5659 5659 5660 5660 5661 5662 5662 5661 5661 5660 5659 5659 5659 5658 5656 5656 5657 5656 5655 5654 5653 5653 5652 5651 5648 5645 5642 5640 5637 5635 5632 5631
5620 5624 5630 5636 5641 5644 5647 5647 5650 5651 5652 5653 5651 5651 5651 5651 5650 5651 5652 5652 5652 5651 5650 5650 5651 5651 5650 5650 5650 5649 5647 5646 5646 5645 5644 5644 5643 5640 5637 5634 5632 5630 5628 5626
5609 5615 5621 5626 5630 5633 5637 5640 5642 5643 5645 5645 5644 5643 5642 5642 5642 5643 5643 5643 5643 5642 5640 5641 5642 5642 5643 5643 5642 5640 5639 5638 5638 5637 5636 5635 5635 5633 5632 5631 5629 5626 5625 5623
5597 5605 5606 5611 5620 5625 5627 5629 5632 5633 5634 5635 5636 5635 5635 5634 5634 5634 5634 5634 5633 5632 5632 5632 5633 5633 5634 5635 5635 5633 5631 5630 5629 5628 5628 5628 5627 5626 5627 5626 5625 5624 5623 5621
5596 5603 5604 5609 5614 5617 5619 5622 5624 5625 5626 5625 5627 5626 5626 5625 5626 5626 5626 5626 5625 5625 5624 5624 5625 5626 5626 5627 5627 5625 5623 5622 5622 5621 5621 5620 5620 5619 5618 5618 5618 5618 5618 5617
5594 5597 5597 5601 5604 5608 5611 5614 5616 5617 5618 5619 5619 5618 5617 5616 5617 5617 5617 5617 5618 5618 5617 5618 5618 5618 5619 5619 5619 5618 5617 5616 5615 5614 5614 5613 5613 5613 5612 5611 5610 5611 5612 5612
5586 5589 5589 5593 5597 5600 5602 5604 5604 5604 5607 5608 5610 5609 5608 5607 5607 5608 5609 5610 5610 5610 5610 5610 5611 5611 5612 5612 5612 5610 5610 5609 5609 5608 5608 5607 5607 5607 5606 5606 5605 5605 5606 5606
5579 5581 5583 5584 5586 5590 5592 5593 5593 5595 5597 5599 5600 5601 5600 5600 5600 5600 5601 5602 5601 5601 5601 5602 5603 5605 5606 5606 5604 5603 5603 5603 5603 5602 5602 5601 5601 5600 5600 5600 5600 5600 5600 5600
5569 5570 5572 5574 5577 5579 5582 5584 5585 5587 5588 5590 5591 5592 5592 5592 5592 5592 5593 5593 5594 5594 5595 5595 5596 5598 5600 5600 5598 5597 5597 5597 5598 5597 5596 5595 5595 5595 5594 5594 5594 5594 5595 5596
5564 5565 5566 5567 5569 5571 5573 5576 5578 5579 5580 5582 5584 5584 5583 5583 5582 5583 5585 5587 5587 5587 5588 5588 5590 5592 5593 5593 5592 5592 5591 5590 5590 5590 5591 5590 5590 5590 5589 5589 5589 5590 5591 5591
5558 5559 5562 5563 5564 5564 5565 5567 5569 5571 5574 5575 5574 5574 5574 5575 5576 5577 5579 5579 5579 5578 5580 5582 5583 5584 5585 5586 5586 5586 5585 5585 5585 5585 5585 5585 5584 5584 5584 5584 5585 5585 5586 5586
5552 5554 5556 5556 5557 5558 5559 5561 5562 5564 5566 5567 5567 5566 5567 5567 5569 5570 5571 5571 5571 5572 5574 5575 5576 5576 5577 5579 5580 5579 5579 5579 5579 5579 5579 5579 5578 5578 5579 5580 5581 5581 5581 5581
5545 5547 5548 5549 5550 5552 5553 5554 5555 5556 5558 5559 5559 5559 5559 5560 5562 5563 5563 5563 5565 5566 5567 5568 5569 5569 5570 5571 5572 5572 5572 5572 5572 5572 5573 5572 5572 5573 5573 5574 5575 5576 5576 5576
5537 5538 5540 5541 5543 5544 5545 5547 5548 5550 5551 5552 5553 5553 5553 5553 5555 5556 5557 5557 5558 5560 5560 5561 5562 5562 5563 5563 5563 5564 5564 5565 5565 5565 5566 5566 5566 5566 5567 5567 5568 5569 5570 5571
5528 5530 5531 5532 5534 5535 5538 5539 5541 5543 5544 5545 5545 5546 5546 5546 5546 5547 5548 5550 5552 5553 5553 5553 5554 5555 5555 5556 5556 5556 5557 5558 5558 5559 5559 5560 5560 5560 5560 5561 5562 5562 5563 5564
5521 5522 5523 5525 5526 5527 5528 5530 5532 5535 5536 5538 5539 5540 5539 5539 5539 5541 5542 5544 5545 5545 5546 5546 5547 5547 5547 5548 5548 5549 5550 5550 5551 5552 5553 5553 5553 5553 5554 5555 5555 5556 5557 5559
5515 5515 5516 5517 5518 5518 5520 5521 5523 5525 5527 5530 5532 5532 5533 5533 5533 5535 5536 5537 5538 5538 5540 5540 5540 5540 5540 5540 5541 5542 5543 5543 5544 5544 5545 5545 5545 5546 5547 5547 5549 5550 5551 5551
5508 5508 5508 5509 5509 5511 5513 5513 5514 5515 5517 5519 5522 5524 5526 5527 5528 5529 5530 5531 5532 5532 5533 5533 5533 5534 5534 5534 5535 5535 5536 5537 5537 5537 5537 5538 5538 5539 5539 5540 5541 5542 5543 5543
5501 5501 5501 5502 5503 5505 5506 5506 5506 5507 5509 5511 5513 5516 5518 5520 5521 5522 5523 5524 5524 5525 5525 5526 5527 5527 5527 5527 5528 5528 5529 5529 5529 5530 5530 5531 5531 5531 5531 5532 5533 5534 5535 5535